Location: ????
(30.2663°N, 31.2484°E)
Time: 04:53:19
(UTC+00:00)

Daily predictions for brighter satellites

Satellite Brightness Start Highest point End
(mag) Time Altitude Azimuth Time Altitude Azimuth Time Altitude Azimuth
H-2A ROCKET BODY 3.8 00:47:42 32° E 00:47:42 32° E 00:53:48 10° E
USA 234 3.9 00:48:28 10° NE 00:54:01 49° ESE 00:54:01 49° ESE
Cosmos 1833 Rocket 4.1 00:56:17 33° E 00:56:17 33° E 01:00:30 10° NE
CZ-2C R/B 4.3 01:04:17 10° NNE 01:06:27 25° NNE 01:06:27 25° NNE
Cosmos 2123 Rocket 4.3 01:07:30 10° N 01:12:42 59° NNE 01:12:42 59° NNE
Cosmos 1605 Rocket 3.9 01:24:12 77° E 01:24:13 77° E 01:30:18 10° N
Gbstr 26 Del rocket 4.0 01:24:44 79° ESE 01:24:44 79° ESE 01:30:14 10° SE
Cosmos 2056 Rocket 4.1 01:32:55 48° SE 01:33:40 53° ESE 01:38:38 10° NNE
ATLAS CENTAUR R/B 2.7 01:35:24 39° SE 01:35:55 41° ESE 01:40:28 10° NE
Cosmos 1346 Rocket 4.3 01:36:05 35° E 01:36:05 35° E 01:39:41 10° NNE
CZ-2C R/B 4.1 01:32:36 10° SE 01:37:14 34° ENE 01:41:54 10° N
ASTRO E2 4.3 01:40:22 33° E 01:40:22 33° E 01:42:37 10° E
Cosmos 1420 Rocket 4.4 01:44:00 35° SSE 01:46:00 59° ESE 01:51:09 10° NNE
METEOR-M 3.9 01:43:10 10° N 01:48:32 76° WNW 01:48:37 76° W
DELTA 2 R/B (1) 3.5 01:49:14 66° NW 01:49:31 67° NNW 01:55:06 10° ENE
IRS-P3 4.0 01:49:06 10° N 01:54:26 77° WNW 01:55:27 58° SW
Atlas Centaur 2 2.7 01:53:42 48° W 01:56:15 87° S 02:03:13 10° E
Cosmos 407 Rocket 4.1 01:53:30 10° N 01:58:45 57° ENE 02:03:58 10° SSE
Meteor 1-14 Rocket 4.2 01:58:58 10° NNW 02:04:48 67° W 02:10:30 10° S
Cosmos 1656 3.7 02:00:13 10° NNW 02:05:57 82° ENE 02:11:35 10° SSE
Tiangong 0.4 02:05:56 15° N 02:06:16 15° NNE 02:08:13 10° NE
CZ-2D R/B 3.2 02:03:40 10° N 02:07:30 73° WNW 02:07:30 73° WNW
ALOS 4.5 02:05:08 10° NNW 02:05:40 12° NNW 02:05:40 12° NNW
Meteor 1-29 3.0 02:09:27 10° NNE 02:12:44 71° ESE 02:13:25 51° SSE
SWIFT 4.2 02:14:07 17° S 02:14:07 17° S 02:16:29 10° SSE
USA 307 4.3 02:15:27 24° NNW 02:15:27 24° NNW 02:18:22 10° NNE
SL-08 R/B 3.7 02:13:41 10° SSE 02:18:13 63° ENE 02:22:50 10° N
ARIANE 5 R/B 2.8 02:14:51 10° N 02:19:34 42° WNW 02:20:32 38° WSW
Helios 1B rocket 4.5 02:18:34 10° NNW 02:19:27 14° NNW 02:19:27 14° NNW
Meteor 1-11 Rocket 4.1 02:15:51 10° N 02:21:49 70° E 02:27:42 10° SSE
GP-B 4.5 02:18:23 10° SSE 02:22:31 40° E 02:26:41 10° NNE
H-2A R/B 3.0 02:18:59 10° NNE 02:22:36 62° E 02:26:12 10° S
Cosmos 1452 Rocket 4.5 02:21:42 10° S 02:26:44 49° ESE 02:31:48 10° NNE
Cosmos 2100 Rocket 3.9 02:25:09 10° S 02:31:18 81° W 02:37:28 10° N
Cosmos 1633 Rocket 2.9 02:27:24 10° N 02:31:44 79° W 02:36:03 10° S
Cosmos 1484 Rocket 3.6 02:33:44 10° NNW 02:37:12 29° WNW 02:37:39 29° W
USA 234 3.9 02:31:42 10° NNE 02:37:34 37° NW 02:41:23 20° W
Cosmos 2098 Rocket 2.1 02:35:19 10° NNW 02:38:10 56° W 02:41:18 10° S
Cosmos 1833 Rocket 3.7 02:38:02 23° W 02:39:21 25° WNW 02:43:54 10° N
Cosmos 1328 Rocket 4.1 02:38:04 23° SW 02:40:03 34° W 02:44:02 10° NNW
Cosmos 1666 Rocket 3.8 02:37:08 10° NNW 02:41:24 46° W 02:45:40 10° SSW
CZ-2C R/B 3.2 02:37:15 10° N 02:42:57 68° WNW 02:48:25 10° SSW
Cosmos 2016 Rocket 4.3 02:37:39 10° S 02:43:56 74° E 02:50:18 10° N
ATLAS 3B CENTAUR R/B 4.4 02:35:08 16° WSW 02:45:36 64° SSE 02:58:20 10° E
BREEZE-M DEB (TANK) 4.3 02:41:26 10° SSW 02:46:16 25° SSE 02:48:43 10° E
Meteor 1-19 Rocket 4.2 02:41:11 10° S 02:46:43 83° E 02:52:09 10° N
CZ-2C R/B 4.4 02:45:06 10° NW 02:45:48 11° NW 02:45:48 11° NW
COSMOS 2406 3.6 02:43:05 13° SW 02:47:52 42° WNW 02:53:15 10° N
Meteor 1-4 Rocket 2.4 02:45:33 10° N 02:49:11 85° W 02:52:49 10° S
Cosmos 2082 Rocket 2.2 02:43:48 10° SSW 02:49:17 57° WNW 02:54:49 10° N
Cosmos 2251 Rocket 4.5 02:46:23 10° NW 02:50:28 24° W 02:54:33 10° SSW
Envisat 3.5 02:47:47 10° N 02:52:25 37° WNW 02:57:03 10° SW
Cosmos 44 Rocket 3.6 02:52:53 11° SW 02:57:07 43° WNW 03:01:37 10° NNE
Cosmos 1515 Rocket 3.8 02:53:46 10° SSW 02:57:57 45° W 03:02:12 10° N
PSLV R/B 3.7 02:55:58 10° N 03:00:09 49° WNW 03:04:16 10° SSW
Cosmos 1536 3.1 02:56:39 10° NNW 03:00:30 44° W 03:04:20 10° SSW
FALCON 9 R/B 0.1 02:59:40 19° W 03:01:03 67° SSW 03:03:41 10° ESE
YAOGAN 6 4.5 03:06:59 10° NW 03:08:40 13° WNW 03:09:50 11° W
Cosmos 1697 Rocket 2.7 03:04:53 10° NNW 03:10:27 60° WSW 03:15:59 10° S
Cosmos 1470 Rocket 3.9 03:08:14 10° NNW 03:12:20 43° W 03:16:27 10° SSW
Cosmos 1461 2.7 03:10:22 10° SSW 03:14:15 80° WNW 03:18:17 10° NNE
ATLAS CENTAUR R/B 3.2 03:11:26 10° W 03:14:47 19° NW 03:18:16 10° N
Cosmos 1802 Rocket 4.3 03:10:01 10° SSW 03:16:09 47° W 03:22:16 10° N
CZ-2C R/B 3.7 03:13:43 10° SW 03:17:31 21° W 03:21:22 10° NW
ASTRO E2 2.7 03:15:01 10° W 03:18:54 73° N 03:22:49 10° E
SL-24 R/B - RUBIN 2 3.6 03:16:00 10° SSW 03:20:40 88° WNW 03:25:04 10° NNE
CENTAUR R/B 2.6 03:16:43 10° SW 03:21:55 49° NW 03:28:07 10° NNE
Meteor 1-18 Rocket 4.3 03:18:53 10° SSW 03:24:41 76° W 03:30:23 10° N
